Погода Котельниково

Погода Котельниково : погода сейчас, прогноз погоды и архив. Всё, что Вы хотите узнать о погоде Котельниково!

Поиск расширенной информации на нашем сайте:

Другие новости

Новости СМИ2

Главная страница сайта

Новости сайта

03.07.2017

Напоминаем, что на нашем специализированном сайте Метеоцентр.Азия вы можете получить высокодетализированные автоматические прогнозы погоды по пунктам России, СНГ и мира в авиационном формате (включающие направление и скорость ветра, видимость, явления погоды, количество и форму облачности, нижнюю и верхнюю границу облачности).


Погода Котельниково - сегодня

Время (UTC), дата Ветер
(°,м/с) 
Видим.   Явления Облачность Т
(°С)
Тd
(°С)
f(%) Тe
(°С)
Pmin
(гПа)
dP
(гПа)
Po
(мм)
O2
(г/м3)
Тmin Tmax R s Состояние
почвы
21 20.02.18 300 (СЗ) 10 км    ясно 
-6.2 -7.3 92 -6  1024.6  0.1  764  316           
00 21.02.18 290 (З) 10 км    ясно 
-8.7 -9.9 91 -8  1025.1  0.5  764  319           
03 21.02.18 тихо ()   10 км    ясно 
-10.5 -12 89 -11  1025.5  0.4  764  321  -10.5      мокрый или
старый снег
50-90% 
06 21.02.18 340 (С) 10 км    ясно 
-8.1 -9.8 88 -10  1026.2  0.7  765  319  -11.2         
09 21.02.18 340 (С) 10 км    3/0 средняя 
[Ac trans]
-2 -8.2 62 -1  1025.6  -0.4  765  311           
12 21.02.18 080 (В) 10 км    8/8 600 м 
[Sc]
-1.6 -7.8 63 -1  1024.9  -0.7  764  311           
15 21.02.18 340 (С) 10 км    9/9 600 м 
[Sc]
-2.9 -7.8 69 -4  1025.1  0.2  764  312    -0.6       
18 21.02.18 330 (СЗ) 10 км    4/0 средняя 
[Ac trans]
-4.7 -7.2 83 -4  1025.3  0.1  764  314           
21 21.02.18 040 (СВ) 10 км    10/10 600 м 
[Sc]
-3.8 -6.9 79 -5  1024.7  -0.6  764  313           
00 22.02.18 060 (СВ) 10 км    10/10 600 м 
[Sc]
-2.8 -5 85 -4  1023.8  -0.8  763  311           
03 22.02.18 070 (В) 10 км    10/10 600 м 
[Sc]
-2.8 -4.6 87 -6  1023.4  -0.5  763  311  -5.1      мокрый или
старый снег
50-90% 
06 22.02.18 090 (В) 10 км  слаб. снег  10/10 600 м 
[Frnb|Ns]
-3 -4.8 87 -7  1023.2  -0.2  763  311           
09 22.02.18 080 (В) 10 км  {снег}  10/10 600 м 
[Frnb|Ns]
-1.3 -3.9 82 -5  1022.6  -0.5  762  309           
12 22.02.18 070 (В) 10 км  слаб. снег  10/10 600 м 
[Frnb|Ns]
-1.5 -3.3 88 -5  1022.5  0.1  762  309           
15 22.02.18 060 (СВ) 10 км  {снег}  10/10 600 м 
[Frnb|Ns]
-2.2 -4.3 85 -5  1022.9  0.4  763  310    -1  0.7     
18 22.02.18 070 (В) 10 км    10/10 600 м 
[Sc]
-3.1 -5.1 86 -7  1023.4  0.5  763  312           
21 22.02.18 060 (СВ) 10 км  слаб. снег  10/10 600 м 
[Frnb|Ns]
-3.9 -5.9 86 -7  1023.3  -0.1  763  312           
00 23.02.18 070 (В) 10 км  {снег}  10/10 600 м 
[Frnb|Ns]
-5.1 -6.8 88 -9  1022.5  -0.9  762  314           
03 23.02.18 070 (В) 10 км  слаб. снег  10/10 600 м 
[Frnb|Ns]
-5.7 -7.6 86 -10  1022.3  -0.2  762  314  -5.7    равномерный
сухой снег
100% 
06 23.02.18 060 (СВ) 6{10}  4000 м  слаб. снег  10/10 300 м 
[Frnb|Ns]
-6 -8 86 -11  1022.5  0.2  762  315  -6.2         
09 23.02.18 070 (В) 7-10{11}  4000 м  слаб. снег  10/10 300 м 
[Frnb]
-4.6 -7.1 83 -9  1021.6  -0.9  761  313           
12 23.02.18 070 (В) 7-10{11}  4000 м  слаб. снег  10/10 300 м 
[Frnb|Ns]
-4.8 -7.1 84 -10  1020.6  -1  761  313           
15 23.02.18 060 (СВ) 4000 м  слаб. снег  10/10 300 м 
[Frnb|Ns]
-6.2 -8 87 -11  1020.6  761  315    -4.5     
18 23.02.18 060 (СВ) 8-11{12}  4000 м  слаб. снег  10/10 300 м 
[Frnb|Ns]
-7.8 -9.9 85 -14  1020.6  761  317           
21 23.02.18 050 (СВ) 5{12}  4000 м  слаб. снег  10/10 300 м 
[Frnb|Ns]
-8.8 -10.7 86 -13  1019.8  -0.9  760  318           
Время (UTC), дата Ветер
(°,м/с) 
Видим.   Явления Облачность Т
(°С)
Тd
(°С)
f(%) Тe
(°С)
Pmin
(гПа)
dP
(гПа)
Po
(мм)
O2
(г/м3)
Тmin Tmax R s Состояние
почвы

Для получения пояснительной информации подведите курсор к названию столбца.

ПОГОДА Котельниково - архив

Всё, что Вы хотите узнать о погоде Котельниково - удобно и подробно!

Выберите нужную дату (начиная с 1 января 2015* года) и нажмите кнопку "Найти".
Будут отображены архивные сводки погоды по пункту Котельниково, начиная с указанной даты.


Отображать данные в формате CSV (для использования в таблицах Excel)


Внимание! Наш архив погоды предназначен исключительно для личного некоммерческого использования в познавательных целях. Если Вам необходимы официальные справки о состоянии погоды (для производственных, юридических, коммерческих и т.п. целей), обращайтесь в органы Росгидромета.

*Примечание: данная дата относится к архиву по метеостанциям СССР (Россия, СНГ, Балтия).
Архив по метеостанциям Зарубежной Европы и Азии (кроме Китая) хранится 10 дней, по другим регионам земного шара (Китай, Африка, Америка, Австралия, Океания) - 1 день.

Котельниково - район местоположения метеостанции


Название, широта, долгота, высота метеостанции:
Котельниково 47.6°ш. 43.2°д. 49 м над ур. моря [Российская Федерация]

Дополнительная информация

В oтличие oт бoльшинства пoгoдных сайтoв мы публикуем пoдрoбную метеoинфoрмацию в детальнoм прoфессиoнальнoм фoрмате.

Характеристики температуры и влажнoсти вoздуха измеряются на высoте 2 м в тени вдали oт зданий и деревьев.
Скoрoсть ветра измеряется на высoте 10 м (на урoвне рoста челoвека скoрoсть ветра ниже в 1.5-2 раза). Если метеoстанция нахoдится в гoрoде или в лесу, тo скoрoсть ветра занижена на 2-4 м/с пo сравнению с oткрытым местoм. Скoрoсть ветра над акватoриями крупных рек и oзёр, а также на вершинах хoлмoв на 2-5 м/с выше, чем в oбычных услoвиях.
Атмoсфернoе давление в разных тoчках местнoсти мoжет значительнo oтличаться oт давления на метеoстанции, в зависимoсти oт услoвий рельефа (при пoдъёме на 10 м давление пoнижается примернo на 1 мм рт.ст.).